This is the latest recevied weather packets stored in our database for station/object N5ATR. If no packets are shown the sender has not sent any weather packets the latest 10 day(s).
| Time | Temp. | Humidity | Pressure | Rain* | Wind** | Luminosity | Snow |
|---|---|---|---|---|---|---|---|
| 1777900767 | 11.11° C | 66% | 1015.3 hPa | 0 mm | - | 60 W/m² | - |
| 1777900464 | 11.11° C | 66% | 1015.3 hPa | 0 mm | - | 55 W/m² | - |
| 1777900161 | 11.11° C | 67% | 1014.9 hPa | 0 mm | - | 48 W/m² | - |
| 1777899858 | 10.56° C | 67% | 1015.3 hPa | 0 mm | - | 39 W/m² | - |
| 1777899554 | 10.56° C | 67% | 1014.9 hPa | 0 mm | - | 43 W/m² | - |
| 1777899252 | 10.56° C | 67% | 1015 hPa | 0 mm | - | 24 W/m² | - |
| 1777898949 | 10.56° C | 67% | 1014.8 hPa | 0 mm | - | 22 W/m² | - |
| 1777898646 | 10.56° C | 68% | 1014.9 hPa | 0 mm | - | 23 W/m² | - |
| 1777898344 | 10.56° C | 68% | 1014.9 hPa | 0 mm | - | 16 W/m² | - |
| 1777898041 | 10.56° C | 68% | 1014.6 hPa | 0 mm | - | 9 W/m² | - |
| 1777897737 | 10.56° C | 68% | 1014.4 hPa | 0 mm | - | 5 W/m² | - |
| 1777897434 | 10.56° C | 68% | 1014.3 hPa | 0 mm | - | 3 W/m² | - |
| 1777897129 | 10.56° C | 68% | 1014.3 hPa | 0 mm | - | 2 W/m² | - |
| 1777896826 | 10° C | 69% | 1014.3 hPa | 0 mm | - | 1 W/m² | - |
| 1777896523 | 10° C | 69% | 1014.1 hPa | 0 mm | - | 0 W/m² | - |
| 1777896221 | 10° C | 69% | 1014.4 hPa | 0 mm | - | 0 W/m² | - |
| 1777895918 | 10° C | 69% | 1014.3 hPa | 0 mm | - | 0 W/m² | - |
| 1777895616 | 10° C | 69% | 1014.3 hPa | 0 mm | - | 0 W/m² | - |
| 1777895313 | 9.44° C | 71% | 1014.3 hPa | 0 mm | - | 0 W/m² | - |
| 1777895011 | 9.44° C | 71% | 1013.9 hPa | 0 mm | - | 0 W/m² | - |
| 1777894708 | 10° C | 71% | 1014.4 hPa | 0 mm | - | 0 W/m² | - |
| 1777894404 | 10° C | 70% | 1014.1 hPa | 0 mm | - | 0 W/m² | - |
| 1777894102 | 10° C | 69% | 1014.3 hPa | 0 mm | - | 0 W/m² | - |
| 1777893799 | 10° C | 70% | 1014 hPa | 0 mm | - | 0 W/m² | - |
| 1777893495 | 10° C | 70% | 1013.9 hPa | 0 mm | - | 0 W/m² | - |
* Rain latest hour (hover to see other rain measurements)
** Current wind speed in m/s (hover to see current wind gust speed)